Погода в Мадиуне

Индонезия     7°37′45″S   111°31′38″E
темп.,
°C
ветер,
м/с
пор.,
м/с
влажн.,
%
обл.,
%
осадки,
мм/ч
давл.,
гПа
погр.,
м
1 марта, пн
пн101:00+23вюв118876 1.6 101023
04:00+23ююв018873 0.0 100924
07:00+24ююв018451 0.0 101153
10:00+29ююз246152 0.0 10111172
13:00+29зсз136864 1.6 1009886
16:00+28с227518 3.3 1008534
19:00+25с228655 4.1 101034
22:00+24св239181 1.2 101175
2 марта, вт
вт201:00+23в129478 1.2 101036
04:00+23юв119361 0.0 100923
07:00+24ююв118764 0.0 1010100
10:00+29с116841 0.1 1011637
13:00+30ссз346851 2.6 1008827
16:00+28с247687 2.6 1007394
19:00+25св128990 5.4 101055
22:00+24юв119192 0.7 101225
3 марта, ср
ср301:00+24юв118889 0.7 101024
04:00+23юв008991 0.0 100924
07:00+25всв118672 0.0 1010106
10:00+30ссз11642 0.0 1011787
13:00+31с335919 0.1 10081223
16:00+28ссз457245 1.2 1008571
19:00+25св138472 1.6 101070
22:00+24в128788 0.0 101292
4 марта, чт
чт401:00+23всв239157 0.0 101176
04:00+23юв119296 0.0 101123
07:00+24ю118576 0.0 1012164
10:00+29з016683 0.0 1012720
13:00+31ссз125992 0.3 1009969
16:00+30з1265100 4.3 1008574
19:00+25ю128491 6.5 101132
22:00+23ю2388100 0.0 101249
5 марта, пт
пт501:00+23ю2286100 0.0 101140
04:00+23ю1284100 0.0 101025
07:00+25ююз1279100 0.0 1012110
10:00+29ююз235777 0.0 1012927
13:00+31ююз135089 0.0 10091228
16:00+30юз126794 0.1 1007911
19:00+25в128394 0.8 101024
22:00+24всв1192100 4.3 101136